#timestamp,LO_Frequency,Hit,StdDev 
1558605615.4,286046998.2,N
1558605635.3,286046996.1,N
1558605655.1,286046993.1,N
1558605656.0,286046993.1,N
1558605675.8,286046991.9,N
1558605695.7,286046990.5,N
1558605715.5,286046989.2,N
1558605735.4,286046988.8,N
1558605755.2,286046984.9,N
1558605775.0,286046983.6,N
1558605775.9,286046983.6,N
1558605795.8,286046981.7,N
1558605815.6,286046977.8,N
1558605835.4,286046978.1,N
1558605855.3,286046977.4,N
1558605875.1,286046976.7,N
1558605895.9,286046972.5,N
1558605915.7,286046969.8,N
1558605935.5,286046971.0,N
1558605955.4,286046972.5,N
1558605975.2,286046972.8,N
1558605995.0,286046973.5,N
1558605996.0,286046973.5,N
1558606015.8,286046970.4,N
1558606035.6,286046968.5,N
1558606055.5,286046971.6,N
1558606105.3,286046970.8,E
1558606115.2,286046982.1,N
1558606135.1,286046992.8,P
1558606136.0,286046992.8,N
1558606155.8,286046990.3,N
1558606175.6,286046990.5,N
1558606195.5,286046985.9,Y
1558606215.3,286046995.6,P
1558606235.2,286046995.2,N
1558606255.9,286046997.2,N
1558606275.7,286046996.7,N
1558606295.6,286046989.1,Y
1558606315.4,286046995.6,P
1558606335.3,286047000.1,N
1558606355.1,286047005.4,N
1558606375.8,286047002.1,N
1558606395.7,286047005.7,N
1558606415.5,286047006.5,N
1558606435.4,286047004.6,N
1558606455.2,286047006.0,N
1558606475.0,286047007.6,N
1558606475.9,286047007.6,N
1558606495.8,286047006.8,N
1558606515.6,286047005.7,N
1558606535.4,286047008.9,N
1558606555.3,286047006.6,N
1558606575.1,286047007.5,N
1558606595.9,286047005.2,N
1558606615.7,286047006.7,N
1558606635.5,286047007.5,N
1558606655.4,286047002.0,N
1558606675.2,286046995.0,N
1558606695.0,286046996.8,N
1558606695.9,286046996.8,N
1558606715.8,286046993.5,N
1558606735.6,286046994.3,N
1558606755.5,286046996.3,N
1558606775.3,286046994.6,N
1558606795.1,286046992.2,N
1558606815.9,286046992.1,N
1558606835.7,286046993.6,N
1558606855.6,286046992.6,N
1558606875.4,286046989.9,N
1558606895.2,286046987.2,N
1558606915.1,286046987.4,N
1558606916.0,286046987.4,N
1558606935.8,286046984.4,N
1558606955.6,286046985.0,N
1558606975.5,286046980.5,N
1558606995.3,286046985.0,N
1558607015.2,286046985.0,N
1558607035.0,286046984.7,N
1558607035.9,286046984.7,N
1558607055.7,286046983.7,N
1558607075.6,286046984.1,N
1558607095.4,286046983.9,N
1558607115.3,286046983.0,N
1558607135.1,286046979.5,N
1558607155.8,286046981.7,N
1558607175.7,286046974.3,Y
1558607195.5,286046982.9,P
1558607215.4,286046982.8,P
1558607235.2,286046981.2,P
1558607255.0,286046979.0,Y
1558607255.9,286046979.0,P
1558607275.8,286046992.3,P
1558607295.6,286046991.6,N
1558607315.5,286046990.0,N
1558607335.3,286046989.4,N
1558607355.1,286046985.8,Y
1558607375.9,286046996.3,P
1558607395.7,286046995.8,N
1558607415.5,286046989.8,N
1558607435.4,286046989.1,N
1558607455.2,286046992.1,N
1558607475.1,286046996.0,N
1558607476.0,286046996.0,N
1558607495.8,286046995.5,N
1558607515.6,286046997.6,N
1558607535.5,286046997.9,N
1558607555.3,286046996.9,N
1558607575.2,286046997.1,N
1558607595.9,286046996.8,N
1558607615.7,286046997.4,N
1558607635.6,286046994.1,N
1558607655.4,286046988.8,Y
1558607675.2,286046988.6,P
1558607695.1,286046987.1,P
1558607696.0,286046987.1,P
1558607715.8,286046988.1,Y
1558607735.7,286046996.6,P
1558607755.5,286046995.2,N
1558607775.3,286046995.7,N
1558607795.2,286046999.6,N
1558607815.0,286046997.5,N
1558607815.9,286046997.5,N
1558607835.8,286046996.3,N
1558607855.6,286046994.0,N
1558607875.4,286046995.7,N
1558607895.3,286046992.0,Y
1558607915.1,286046996.4,P
1558607935.9,286046991.9,P
1558607955.7,286046990.9,P
1558607975.5,286046990.2,Y
1558607995.4,286046995.0,P
1558608015.2,286046996.7,P
1558608035.0,286046996.9,N
1558608035.9,286046996.9,N
1558608055.8,286046996.6,N
1558608075.6,286047002.3,N
1558608095.5,286046998.9,N
1558608115.3,286047000.8,N
1558608135.1,286046998.7,N
1558608155.9,286046999.0,N
1558608175.7,286047000.7,N
1558608195.6,286047000.6,N
1558608215.4,286046998.8,N
1558608235.2,286046994.6,N
1558608255.1,286046993.4,N
1558608256.0,286046993.4,N
1558608275.8,286046999.6,N
1558608295.6,286046996.5,N
1558608315.5,286046998.3,N
1558608335.3,286047000.2,N
1558608355.2,286047002.5,N
1558608375.9,286047001.1,N
1558608395.7,286047002.4,N
1558608415.6,286047003.3,N
1558608435.4,286047000.8,N
1558608455.2,286047000.8,N
1558608475.1,286047000.4,N
1558608476.0,286047000.4,N
1558608495.8,286047000.2,N
1558608515.7,286047000.5,N
1558608535.5,286046997.3,N
1558608555.3,286046992.3,Y
1558608575.2,286046996.2,P
1558608595.0,286046993.3,P
1558608595.9,286046993.3,N
1558608615.8,286046997.4,N
1558608635.6,286046994.9,N
1558608655.4,286046995.4,N
1558608675.3,286046996.2,N
1558608695.1,286046988.5,Y
1558608715.8,286046989.7,P
1558608735.7,286046986.3,P
1558608755.5,286046990.4,N
1558608775.4,286046990.3,N
1558608795.2,286046989.1,Y
1558608815.0,286046998.4,P
1558608815.9,286046998.4,N
1558608835.8,286046996.5,N
1558608855.6,286047002.4,N
1558608875.5,286047001.0,N
1558608895.3,286046995.2,N
1558608915.1,286046995.0,N
1558608935.9,286046993.6,N
1558608955.7,286046997.2,N
1558608975.5,286046997.2,N
1558608995.4,286046995.8,N
1558609015.2,286046994.9,N
1558609035.1,286046995.0,N
1558609036.0,286046995.0,N
1558609055.8,286046997.7,N
1558609075.6,286046997.6,N
1558609095.5,286046997.8,N
1558609115.3,286046997.1,N
1558609135.1,286046998.6,N
1558609155.9,286046998.1,N
1558609175.7,286046998.4,N
1558609195.6,286046998.2,N
